Wautoma, WI

6:09 AM CDT on June 27, 2017 (GMT -0500)
Wautoma

Weather History for KY50 - December, 2012

Change the Weather History Date:

Wednesday, December 5, 2012

  Actual Average (KPCZ) Record (KPCZ)
Temperature  
Mean Temperature 24 °F -  
Max Temperature 32 °F 32 °F 53 °F (1975)
Min Temperature 15 °F 17 °F 0 °F (2005)
Degree Days  
Heating Degree Days 42    
Moisture  
Dew Point 17 °F    
Average Humidity 71    
Maximum Humidity 88    
Minimum Humidity 52    
Precipitation  
Precipitation 0.00 in - - ()
Sea Level Pressure  
Sea Level Pressure 30.37 in    
Wind  
Wind Speed 2 mph (SE)    
Max Wind Speed 10 mph    
Max Gust Speed -    
Visibility 10 miles    
Events      
Averages and records for this station are not official NWS values.
T = Trace of Precipitation, MM = Missing Value Source: NWS Daily Summary

Daily Weather History Graph

Daily Weather History Graph

Search for Another Location

Airport or City:

Trip Planner

Search our weather history database for the weather conditions in past years. The results will help you decide how hot, cold, wet, or windy it might be!

Date:

Astronomy

Dec. 05, 2012 Rise Set
Actual Time 7:16 AM CST 4:19 PM CST
Civil Twilight 6:44 AM CST 4:51 PM CST
Nautical Twilight 6:07 AM CST 5:28 PM CST
Astronomical Twilight 5:32 AM CST 6:03 PM CST
Moon 11:19 PM CST (12/5) 11:30 AM CST (12/5)
Length of Visible Light 10h 07m
Length of Day
9h 02m
Waning Gibbous, 59% of the Moon is Illuminated
Dec 5
Waning Gibbous
Dec 6
Last Quarter
Dec 13
New
Dec 19
First Quarter
Dec 28
Full

Hourly Weather History & Observations

Time (CST) Temp. Windchill Dew Point Humidity Pressure Visibility Wind Dir Wind Speed Gust Speed Precip Events Conditions
12:56 AM 21.0 °F - 11.1 °F 66% 30.40 in 10.0 mi Calm Calm - N/A   Clear
1:56 AM 20.1 °F - 12.0 °F 71% 30.43 in 10.0 mi Calm Calm - N/A   Clear
2:56 AM 19.0 °F - 12.0 °F 74% 30.43 in 10.0 mi Calm Calm - N/A   Clear
3:56 AM 17.1 °F - 12.0 °F 81% 30.43 in 10.0 mi Calm Calm - N/A   Clear
4:56 AM 16.2 °F - 12.0 °F 84% 30.45 in 10.0 mi Calm Calm - N/A   Clear
5:56 AM 15.1 °F - 12.0 °F 88% 30.46 in 10.0 mi Calm Calm - N/A   Clear
6:56 AM 15.1 °F - 12.0 °F 88% 30.46 in 10.0 mi Calm Calm - N/A   Clear
8:56 AM 20.1 °F - 14.0 °F 77% 30.47 in 10.0 mi Calm Calm - N/A   Clear
9:56 AM 25.2 °F - 15.1 °F 66% 30.48 in 10.0 mi Calm Calm - N/A   Clear
10:56 AM 27.1 °F 18.9 °F 15.1 °F 60% 30.46 in 10.0 mi East 8.1 mph - N/A   Clear
11:56 AM 29.1 °F 24.1 °F 16.2 °F 58% 30.43 in 10.0 mi ESE 4.6 mph - N/A   Clear
12:56 PM 31.1 °F 23.7 °F 16.2 °F 54% 30.42 in 10.0 mi SE 8.1 mph - N/A   Clear
1:56 PM 32.0 °F 23.6 °F 17.1 °F 54% 30.38 in 10.0 mi SSE 10.4 mph - N/A   Clear
2:56 PM 32.0 °F 23.6 °F 16.2 °F 52% 30.37 in 10.0 mi SE 10.4 mph - N/A   Clear
3:56 PM 31.1 °F - 17.1 °F 56% 30.35 in 10.0 mi Calm Calm - N/A   Clear
4:56 PM 29.1 °F - 17.1 °F 61% 30.33 in 10.0 mi Calm Calm - N/A   Clear
5:56 PM 27.1 °F - 18.1 °F 69% 30.32 in 10.0 mi Calm Calm - N/A   Clear
6:56 PM 28.0 °F - 19.0 °F 69% 30.29 in 10.0 mi Calm Calm - N/A   Clear
7:56 PM 28.0 °F - 22.1 °F 78% 30.27 in 10.0 mi Calm Calm - N/A   Partly Cloudy
8:56 PM 29.1 °F 22.1 °F 23.0 °F 78% 30.23 in 10.0 mi SE 6.9 mph - N/A   Mostly Cloudy
9:56 PM 30.0 °F 21.7 °F 25.2 °F 82% 30.22 in 10.0 mi SSE 9.2 mph - N/A   Scattered Clouds
10:56 PM 31.1 °F - 25.2 °F 79% 30.20 in 10.0 mi Calm Calm - N/A   Clear
11:56 PM 31.1 °F 26.4 °F 26.1 °F 82% 30.18 in 10.0 mi SSE 4.6 mph - N/A   Clear